St. Cloud, MN

10:03 AM CDT on October 23, 2019 (GMT -0500)
Saint Cloud Regional

Weather History for KSTC - May, 2019

Change the Weather History Date:

Friday, May 10, 2019

  Actual Average Record
Temperature  
Mean Temperature 45 °F 55 °F  
Max Temperature 60 °F 67 °F 92 °F (1911)
Min Temperature 29 °F 42 °F 20 °F (1945)
Degree Days  
Heating Degree Days 20 11  
Month to date heating degree days 192 122  
Since 1 July heating degree days 8990 8289  
Cooling Degree Days 0 1  
Month to date cooling degree days 0 2  
Year to date cooling degree days 0 4  
Moisture  
Dew Point 30 °F    
Average Humidity 62    
Maximum Humidity 100    
Minimum Humidity 23    
Precipitation  
Precipitation 0.01 in 0.10 in 2.00 in (1920)
Month to date precipitation 1.38 0.96  
Year to date precipitation 8.73 6.32  
Snow  
Snow 0.00 in 0.00 in T in (1969)
Month to date snowfall 0.4 0.0  
Since 1 July snowfall 68.9 45.7  
Snow Depth 0.00 in    
Sea Level Pressure  
Sea Level Pressure 30.13 in    
Wind  
Wind Speed 4 mph (SW)    
Max Wind Speed 17 mph    
Max Gust Speed 23 mph    
Visibility 10 miles    
Events Rain    
T = Trace of Precipitation, MM = Missing Value Source: NWS Daily Summary

Daily Weather History Graph

Daily Weather History Graph

Search for Another Location

Airport or City:

Astronomy

May. 10, 2019 Rise Set
Actual Time 5:51 AM CDT 8:34 PM CDT
Civil Twilight 5:17 AM CDT 9:08 PM CDT
Nautical Twilight 4:35 AM CDT 9:51 PM CDT
Astronomical Twilight 3:45 AM CDT 10:41 PM CDT
Moon 10:49 AM CDT (5/10) 1:31 AM CDT (5/10)
Length of Visible Light 15h 50m
Length of Day
14h 42m
Waxing Crescent, 35% of the Moon is Illuminated
May 10
Waxing Crescent
May 11
First Quarter
May 18
Full
May 26
Last Quarter
Jun 3
New

Hourly Weather History & Observations

Time (CDT) Temp. Windchill Dew Point Humidity Pressure Visibility Wind Dir Wind Speed Gust Speed Precip Events Conditions
12:53 AM 37.0 °F - 33.1 °F 86% 30.13 in 10.0 mi Calm Calm - N/A   Clear
1:53 AM 35.1 °F - 32.0 °F 89% 30.14 in 10.0 mi Calm Calm - N/A   Clear
2:53 AM 34.0 °F - 32.0 °F 92% 30.14 in 10.0 mi Calm Calm - N/A   Clear
3:53 AM 32.0 °F - 30.9 °F 96% 30.14 in 10.0 mi Calm Calm - N/A   Clear
4:53 AM 30.9 °F - 30.9 °F 100% 30.14 in 10.0 mi Calm Calm - N/A   Clear
5:53 AM 30.9 °F - 28.9 °F 92% 30.14 in 5.0 mi Calm Calm - N/A   Clear
6:53 AM 33.1 °F - 30.9 °F 92% 30.15 in 10.0 mi Calm Calm - N/A   Clear
7:53 AM 42.1 °F - 35.1 °F 76% 30.16 in 10.0 mi Calm Calm - N/A   Scattered Clouds
8:53 AM 48.0 °F - 34.0 °F 58% 30.16 in 10.0 mi ESE 3.5 mph - N/A   Partly Cloudy
9:53 AM 51.1 °F - 33.1 °F 50% 30.17 in 10.0 mi Calm Calm - N/A   Scattered Clouds
10:53 AM 51.1 °F - 30.0 °F 44% 30.18 in 10.0 mi SW 3.5 mph - N/A   Mostly Cloudy
11:53 AM 51.1 °F - 37.0 °F 59% 30.18 in 10.0 mi Calm Calm - 0.00 in Rain Light Rain
12:53 PM 53.1 °F - 34.0 °F 48% 30.18 in 10.0 mi ENE 4.6 mph - 0.01 in   Mostly Cloudy
1:53 PM 54.0 °F - 30.0 °F 40% 30.16 in 10.0 mi SSW 8.1 mph - N/A   Mostly Cloudy
2:53 PM 57.9 °F - 24.1 °F 27% 30.14 in 10.0 mi WSW 11.5 mph 23.0 mph N/A   Scattered Clouds
3:53 PM 57.9 °F - 21.0 °F 24% 30.12 in 10.0 mi WSW 12.7 mph - N/A   Partly Cloudy
4:53 PM 59.0 °F - 21.9 °F 24% 30.11 in 10.0 mi West 10.4 mph - N/A   Clear
5:53 PM 57.9 °F - 21.0 °F 24% 30.09 in 10.0 mi NW 9.2 mph 19.6 mph N/A   Clear
6:53 PM 57.9 °F - 24.1 °F 27% 30.10 in 10.0 mi WSW 11.5 mph - N/A   Clear
7:53 PM 55.0 °F - 27.0 °F 34% 30.08 in 10.0 mi WNW 5.8 mph - N/A   Clear
8:53 PM 50.0 °F - 28.0 °F 43% 30.09 in 10.0 mi Calm Calm - N/A   Clear
9:53 PM 44.1 °F 42.5 °F 32.0 °F 63% 30.10 in 10.0 mi SE 3.5 mph - N/A   Clear
10:53 PM 43.0 °F 40.3 °F 34.0 °F 71% 30.10 in 10.0 mi SE 4.6 mph - N/A   Clear
11:53 PM 46.0 °F 43.1 °F 30.9 °F 56% 30.10 in 10.0 mi SE 5.8 mph - N/A   Clear